Zurück zum Katalog

SCOUT G-1 R/B

AktivPO
NORAD 17071·ROCKET BODY·🇺🇸 United States

Gestartet Nov 14, 1986 von Vandenberg Space Force Base

Loading…

Nächste Überflüge (nächste 24 Stunden)

TLE

AktuellSource: Space-Track

Epoche: Sep 14, 2026, 11:59 UTC

1 17071U 86088B   26257.49979006  .00000096  00000-0  87625-4 0  9999
2 17071  89.6096 163.9266 0038469 350.4421   9.6008 13.75643506998007

Verfolge SCOUT G-1 R/B in Echtzeit mit AllMySat

Download on the App Store